Broad Creek Laurel DE USA current weather conditions

sailwx.info

Wind from 261 at 0 knots gusting 0

Air temperature -4.7° C
Dewpoint -9.3° C

Last reported at 2020-Jan-18 10:05 UTC.
Time now 2020-Jan-18 11:09 UTC

Location: N 38°32' W 075°36'.
View on Google Maps.

See reports from other nearby stations

  
Tides and Currents Weather Stations Pressure Air Temp Water Temp Dewpoint Dewpoint Depression Visibility Wind Speed Wind Dir Waves Ship Positions
date/time (UTC)wind fromknots sea level pressurealtimeterstation pressurevisibilityair tempwater tempwave heightnotes
2020-Jan-18 10:05 261 0 gusting 0 -4.7
2020-Jan-18 10:00 267 0 gusting 1 -4.8
2020-Jan-18 09:55 271 1 gusting 1 -4.9
2020-Jan-18 09:50 289 0 gusting 0 -5.0
2020-Jan-18 09:45 289 0 gusting 0 -5.0
2020-Jan-18 09:40 289 0 gusting 1 -4.9
2020-Jan-18 09:35 284 1 gusting 1 -4.9
2020-Jan-18 09:30 277 0 gusting 1 -5.0
2020-Jan-18 09:25 282 0 gusting 1 -5.0
2020-Jan-18 09:20 245 0 gusting 0 -5.0
2020-Jan-18 09:15 245 0 gusting 0 -4.9
2020-Jan-18 09:10 252 1 gusting 1 -5.0
2020-Jan-18 09:05 234 0 gusting 1 -5.0
2020-Jan-18 09:00 223 0 gusting 0 -5.1
2020-Jan-18 08:55 232 1 gusting 1 -5.1
2020-Jan-18 08:50 238 2 gusting 2 -5.1
2020-Jan-18 08:45 236 2 gusting 2 -5.1
2020-Jan-18 08:40 245 2 gusting 2 -5.1
2020-Jan-18 08:35 234 2 gusting 2 -5.3
2020-Jan-18 08:30 232 1 gusting 1 -5.5
2020-Jan-18 08:25 246 1 gusting 2 -5.5
2020-Jan-18 08:20 239 1 gusting 2 -5.5
2020-Jan-18 08:15 247 1 gusting 1 -5.4
2020-Jan-18 08:10 277 1 gusting 1 -5.7
2020-Jan-18 08:05 280 1 gusting 1 -5.7
2020-Jan-18 08:00 274 0 gusting 1 -5.8
2020-Jan-18 07:55 051 0 gusting 1 -5.8
2020-Jan-18 07:50 073 1 gusting 1 -5.8
2020-Jan-18 07:45 078 1 gusting 1 -5.5
2020-Jan-18 07:40 079 1 gusting 1 -5.3
2020-Jan-18 07:35 083 1 gusting 1 -5.2
2020-Jan-18 07:30 071 1 gusting 1 -5.0
2020-Jan-18 07:25 054 1 gusting 1 -4.9
2020-Jan-18 07:20 071 1 gusting 1 -5.0
2020-Jan-18 07:15 058 1 gusting 2 -4.9
2020-Jan-18 07:10 066 2 gusting 3 -4.9
2020-Jan-18 07:05 065 2 gusting 2 -4.9
2020-Jan-18 07:00 075 2 gusting 2 -5.2
2020-Jan-18 06:55 071 2 gusting 3 -5.4
2020-Jan-18 06:50 053 3 gusting 4 -5.3
2020-Jan-18 06:45 039 3 gusting 4 -5.0
2020-Jan-18 06:40 039 3 gusting 5 -4.8
2020-Jan-18 06:35 044 2 gusting 4 -4.7
2020-Jan-18 06:30 043 2 gusting 3 -4.8
2020-Jan-18 06:25 038 2 gusting 3 -4.7
2020-Jan-18 06:20 047 2 gusting 4 -4.7
2020-Jan-18 06:15 051 3 gusting 4 -4.8
2020-Jan-18 06:10 046 3 gusting 5 -4.7
2020-Jan-18 06:05 044 3 gusting 6 -4.8
2020-Jan-18 06:00 038 3 gusting 4 -5.0
2020-Jan-18 05:55 041 3 gusting 4 -5.2
2020-Jan-18 05:50 036 3 gusting 4 -5.0
2020-Jan-18 05:45 030 3 gusting 4 -5.1
2020-Jan-18 05:40 030 3 gusting 4 -5.4
2020-Jan-18 05:35 038 4 gusting 4 -5.7
2020-Jan-18 05:30 015 3 gusting 4 -5.7
2020-Jan-18 05:25 014 2 gusting 3 -6.4
2020-Jan-18 05:20 029 2 gusting 3 -6.4
2020-Jan-18 05:15 012 2 gusting 3 -6.5
2020-Jan-18 05:10 352 1 gusting 2 -6.7
2020-Jan-18 05:05 006 0 gusting 1 -7.3
2020-Jan-18 05:00 098 0 gusting 0 -7.3
2020-Jan-18 04:55 104 0 gusting 0 -7.5
2020-Jan-18 04:50 -7.5
2020-Jan-18 04:45 -7.3
2020-Jan-18 04:40 131 0 gusting 1 -7.3
2020-Jan-18 04:35 114 1 gusting 2 -7.7
2020-Jan-18 04:30 125 0 gusting 2 -8.1
2020-Jan-18 04:25 246 0 gusting 1 -7.7
2020-Jan-18 04:20 246 1 gusting 1 -7.3
2020-Jan-18 04:15 158 0 gusting 1 -7.2
2020-Jan-18 04:10 134 2 gusting 3 -7.3
2020-Jan-18 04:05 233 0 gusting 1 -6.9
2020-Jan-18 04:00 252 1 gusting 1 -6.8
2020-Jan-18 03:55 265 1 gusting 2 -6.9
2020-Jan-18 03:50 266 2 gusting 2 -6.8
2020-Jan-18 03:45 253 1 gusting 2 -7.0
2020-Jan-18 03:40 139 0 gusting 0 -7.4
2020-Jan-18 03:35 097 0 gusting 1 -7.0
2020-Jan-18 03:30 265 0 gusting 0 -5.6
2020-Jan-18 03:25 266 1 gusting 2 -5.2
2020-Jan-18 03:20 265 2 gusting 2 -6.4
2020-Jan-18 03:15 275 1 gusting 2 -7.5
2020-Jan-18 03:10 310 0 gusting 1 -7.5
2020-Jan-18 03:05 312 1 gusting 2 -6.6
2020-Jan-18 03:00 287 2 gusting 2 -6.7
2020-Jan-18 02:55 229 1 gusting 2 -6.1
2020-Jan-18 02:50 144 1 gusting 1 -6.2
2020-Jan-18 02:45 149 2 gusting 2 -6.0
2020-Jan-18 02:40 148 1 gusting 1 -5.7
2020-Jan-18 02:35 167 0 gusting 1 -5.7
2020-Jan-18 02:30 199 0 gusting 1 -5.8
2020-Jan-18 02:25 191 1 gusting 1 -6.0
2020-Jan-18 02:20 166 0 gusting 1 -6.3
2020-Jan-18 02:15 298 0 gusting 0 -6.0
2020-Jan-18 02:10 295 0 gusting 1 -5.6
2020-Jan-18 02:05 301 1 gusting 1 -5.1
2020-Jan-18 02:00 247 0 gusting 1 -5.0
2020-Jan-18 01:55 244 0 gusting 1 -5.0
2020-Jan-18 01:50 244 0 gusting 0 -4.9
2020-Jan-18 01:45 155 0 gusting 1 -4.8
2020-Jan-18 01:40 113 1 gusting 1 -5.1
2020-Jan-18 01:35 106 1 gusting 1 -5.1
2020-Jan-18 01:30 307 0 gusting 1 -4.9
2020-Jan-18 01:25 292 1 gusting 1 -4.3
2020-Jan-18 01:20 265 1 gusting 1 -4.4
2020-Jan-18 01:15 293 1 gusting 2 -4.2
2020-Jan-18 01:10 320 2 gusting 3 -3.7
2020-Jan-18 01:05 323 2 gusting 3 -3.7
2020-Jan-18 01:00 340 2 gusting 3 -3.9
2020-Jan-18 00:55 324 3 gusting 4 -4.0
2020-Jan-18 00:50 307 2 gusting 3 -4.1
2020-Jan-18 00:45 319 3 gusting 4 -3.2
2020-Jan-18 00:40 285 3 gusting 3 -3.5
2020-Jan-18 00:35 289 2 gusting 2 -3.6
2020-Jan-18 00:30 318 2 gusting 3 -3.4
2020-Jan-18 00:25 287 2 gusting 3 -3.0
2020-Jan-18 00:20 301 2 gusting 3 -3.0
2020-Jan-18 00:15 306 2 gusting 3 -2.9
2020-Jan-18 00:10 306 3 gusting 4 -3.0
2020-Jan-18 00:05 321 2 gusting 3 -3.3
2020-Jan-18 00:00 320 3 gusting 4 -3.2
2020-Jan-17 23:55 329 4 gusting 5 -3.1
2020-Jan-17 23:50 325 3 gusting 5 -2.7
2020-Jan-17 23:45 306 3 gusting 4 -2.9
2020-Jan-17 23:40 320 4 gusting 5 -2.9
2020-Jan-17 23:35 332 4 gusting 6 -2.7
2020-Jan-17 23:30 332 4 gusting 6 -2.7
2020-Jan-17 23:25 329 4 gusting 6 -2.9
2020-Jan-17 23:20 335 5 gusting 6 -2.7
2020-Jan-17 23:15 326 4 gusting 6 -2.4
2020-Jan-17 23:10 329 4 gusting 6 -2.5
2020-Jan-17 23:05 338 4 gusting 6 -2.6
2020-Jan-17 23:00 337 5 gusting 6 -2.4
2020-Jan-17 22:55 338 5 gusting 8 -2.2
2020-Jan-17 22:50 333 5 gusting 8 -2.0
2020-Jan-17 22:45 325 5 gusting 7 -1.9
2020-Jan-17 22:40 337 6 gusting 9 -1.8
2020-Jan-17 22:35 338 6 gusting 8 -1.8
2020-Jan-17 22:30 331 4 gusting 7 -1.8
2020-Jan-17 22:25 345 5 gusting 8 -1.7
2020-Jan-17 22:20 348 5 gusting 7 -1.7
2020-Jan-17 22:15 342 4 gusting 5 -1.5
2020-Jan-17 22:10 336 6 gusting 9 -1.1
2020-Jan-17 22:05 337 7 gusting 11 -0.9
2020-Jan-17 22:00 336 6 gusting 10 -0.9
2020-Jan-17 21:55 337 6 gusting 8 -0.7
2020-Jan-17 21:50 338 8 gusting 13 -0.5
2020-Jan-17 21:45 353 7 gusting 12 -0.4
2020-Jan-17 21:40 340 6 gusting 9 -0.2
2020-Jan-17 21:35 347 8 gusting 11 -0.1
2020-Jan-17 21:30 336 10 gusting 13 -0.0
2020-Jan-17 21:25 333 7 gusting 9 0.1
2020-Jan-17 21:20 328 8 gusting 12 0.3
2020-Jan-17 21:15 331 8 gusting 11 0.3
2020-Jan-17 21:10 330 8 gusting 14 0.4
2020-Jan-17 21:05 346 9 gusting 11 0.5
2020-Jan-17 21:00 351 8 gusting 11 0.7
2020-Jan-17 20:55 351 7 gusting 11 0.7
2020-Jan-17 20:50 324 9 gusting 12 0.6
2020-Jan-17 20:45 344 9 gusting 14 0.8
2020-Jan-17 20:40 349 8 gusting 12 0.9
2020-Jan-17 20:35 344 8 gusting 11 0.9
2020-Jan-17 20:30 357 10 gusting 13 1.1
2020-Jan-17 20:25 355 10 gusting 12 1.0
2020-Jan-17 20:20 336 8 gusting 11 0.9
2020-Jan-17 20:15 351 10 gusting 14 1.0
2020-Jan-17 20:10 349 11 gusting 14 1.1
2020-Jan-17 20:05 348 10 gusting 13 1.1
2020-Jan-17 20:00 342 10 gusting 15 1.3
2020-Jan-17 19:55 344 10 gusting 14 1.1
2020-Jan-17 19:50 353 10 gusting 15 1.2
2020-Jan-17 19:45 333 10 gusting 15 1.5
2020-Jan-17 19:40 321 9 gusting 14 1.2
2020-Jan-17 19:35 338 9 gusting 14 1.4
2020-Jan-17 19:30 002 9 gusting 11 1.3
2020-Jan-17 19:25 359 11 gusting 17 1.3
2020-Jan-17 19:20 339 11 gusting 15 1.3
2020-Jan-17 19:15 346 11 gusting 15 1.2
2020-Jan-17 19:10 325 12 gusting 15 1.0
2020-Jan-17 19:05 334 12 gusting 16 1.2
2020-Jan-17 19:00 349 12 gusting 18 1.5
2020-Jan-17 18:55 002 10 gusting 15 1.3
2020-Jan-17 18:50 008 11 gusting 18 1.2
2020-Jan-17 18:45 357 12 gusting 16 1.3
2020-Jan-17 18:40 345 11 gusting 18 1.2
2020-Jan-17 18:35 343 13 gusting 20 1.5
2020-Jan-17 18:30 335 12 gusting 18 1.8
2020-Jan-17 18:25 351 10 gusting 15 1.7
2020-Jan-17 18:20 338 12 gusting 16 1.5
2020-Jan-17 18:15 345 11 gusting 16 1.4
2020-Jan-17 18:10 334 10 gusting 16 1.6
2020-Jan-17 18:05 331 12 gusting 18 1.6
2020-Jan-17 18:00 342 11 gusting 17 1.6
2020-Jan-17 17:55 328 11 gusting 17 1.7
2020-Jan-17 17:50 332 12 gusting 17 1.5
2020-Jan-17 17:45 338 11 gusting 16 1.2
2020-Jan-17 17:40 342 12 gusting 17 1.0
2020-Jan-17 17:35 344 13 gusting 18 1.4
2020-Jan-17 17:30 350 12 gusting 18 1.6
2020-Jan-17 17:25 353 13 gusting 18 1.2
2020-Jan-17 17:20 342 13 gusting 19 1.6
2020-Jan-17 17:15 329 11 gusting 18 1.6
2020-Jan-17 17:10 326 10 gusting 18 1.7
2020-Jan-17 17:05 322 12 gusting 19 1.4
2020-Jan-17 17:00 336 11 gusting 17 1.5
2020-Jan-17 16:55 325 12 gusting 17 1.0
2020-Jan-17 16:50 325 12 gusting 17 1.1
2020-Jan-17 16:45 329 12 gusting 16 1.2
2020-Jan-17 16:40 326 13 gusting 19 1.1
2020-Jan-17 16:35 336 12 gusting 16 1.0
2020-Jan-17 16:30 329 13 gusting 19 1.2
2020-Jan-17 16:25 337 13 gusting 18 1.1
2020-Jan-17 16:20 359 13 gusting 17 0.9
2020-Jan-17 16:15 350 12 gusting 17 1.0
2020-Jan-17 16:10 351 13 gusting 17 0.9
2020-Jan-17 16:05 349 13 gusting 19 0.9
2020-Jan-17 16:00 358 12 gusting 16 0.7
2020-Jan-17 15:55 347 15 gusting 22 0.5
2020-Jan-17 15:50 337 16 gusting 23 0.5
2020-Jan-17 15:45 336 16 gusting 22 0.4
2020-Jan-17 15:40 325 14 gusting 20 0.3
2020-Jan-17 15:35 323 13 gusting 18 0.6
2020-Jan-17 15:30 342 12 gusting 18 0.6
2020-Jan-17 15:25 332 12 gusting 18 0.5
2020-Jan-17 15:20 322 12 gusting 19 0.3
2020-Jan-17 15:15 340 12 gusting 19 0.2
2020-Jan-17 15:10 340 12 gusting 17 0.1
2020-Jan-17 15:05 330 13 gusting 18 0.0
2020-Jan-17 15:00 336 12 gusting 17 0.0
2020-Jan-17 14:55 343 13 gusting 19 -0.1
2020-Jan-17 14:50 348 13 gusting 17 0.1
2020-Jan-17 14:45 348 12 gusting 17 0.0
2020-Jan-17 14:40 331 12 gusting 17 -0.1
2020-Jan-17 14:35 328 12 gusting 16 -0.2
2020-Jan-17 14:30 331 13 gusting 19 -0.4
2020-Jan-17 14:25 330 11 gusting 16 -0.4
2020-Jan-17 14:20 322 12 gusting 18 -0.5
2020-Jan-17 14:15 330 11 gusting 17 -0.4
2020-Jan-17 14:10 327 12 gusting 18 -0.5
2020-Jan-17 14:05 334 13 gusting 18 -0.7
2020-Jan-17 14:00 328 14 gusting 18 -0.7
2020-Jan-17 13:55 331 13 gusting 17 -0.7
2020-Jan-17 13:50 329 11 gusting 15 -0.7
2020-Jan-17 13:45 327 13 gusting 19 -0.8
2020-Jan-17 13:40 328 11 gusting 16 -0.8
2020-Jan-17 13:35 337 10 gusting 16 -0.8
2020-Jan-17 13:30 336 9 gusting 12 -0.9
2020-Jan-17 13:25 327 9 gusting 14 -0.9
2020-Jan-17 13:20 332 12 gusting 16 -1.0
2020-Jan-17 13:15 327 10 gusting 16 -1.0
2020-Jan-17 13:10 324 11 gusting 16 -1.1
2020-Jan-17 13:05 330 11 gusting 18 -1.1
2020-Jan-17 13:00 328 11 gusting 15 -1.1
2020-Jan-17 12:55 334 11 gusting 16 -1.1
2020-Jan-17 12:50 333 10 gusting 12 -1.2
2020-Jan-17 12:45 331 10 gusting 14 -1.2
2020-Jan-17 12:40 326 10 gusting 15 -1.2
2020-Jan-17 12:35 321 6 gusting 11 -1.3
2020-Jan-17 12:30 326 7 gusting 11 -1.2
2020-Jan-17 12:25 319 9 gusting 18 -1.0
2020-Jan-17 12:20 323 10 gusting 14 -1.0
2020-Jan-17 12:15 328 11 gusting 15 -1.0
2020-Jan-17 12:10 329 9 gusting 14 -1.0
2020-Jan-17 12:05 327 9 gusting 15 -0.8
2020-Jan-17 12:00 327 11 gusting 16 -0.7
2020-Jan-17 11:55 321 11 gusting 18 -0.7
2020-Jan-17 11:50 329 12 gusting 16 -0.7
2020-Jan-17 11:45 322 10 gusting 15 -0.6
2020-Jan-17 11:40 321 10 gusting 16 -0.6
2020-Jan-17 11:35 325 10 gusting 14 -0.5
2020-Jan-17 11:30 325 10 gusting 15 -0.4
2020-Jan-17 11:25 321 9 gusting 16 -0.4
2020-Jan-17 11:20 318 9 gusting 14 -0.3
2020-Jan-17 11:15 316 11 gusting 18 -0.2
2020-Jan-17 11:10 319 12 gusting 18 -0.1
2020-Jan-17 11:05 319 13 gusting 17 -0.1
2020-Jan-17 11:00 319 10 gusting 16 -0.1
2020-Jan-17 10:55 324 11 gusting 21 -0.1
2020-Jan-17 10:50 323 10 gusting 15 -0.0
2020-Jan-17 10:45 327 9 gusting 14 0.0
2020-Jan-17 10:40 329 11 gusting 14 0.1
2020-Jan-17 10:35 329 12 gusting 17 0.3
2020-Jan-17 10:30 323 12 gusting 17 0.3
2020-Jan-17 10:25 331 13 gusting 19 0.3
2020-Jan-17 10:20 326 11 gusting 18 0.4
2020-Jan-17 10:15 329 13 gusting 20 0.4
2020-Jan-17 10:10 328 12 gusting 20 0.5
2020-Jan-17 10:05 320 14 gusting 22 0.5
2020-Jan-17 10:00 322 13 gusting 20 0.6
2020-Jan-17 09:55 317 12 gusting 18 0.6
2020-Jan-17 09:50 317 12 gusting 20 0.6
2020-Jan-17 09:45 315 13 gusting 22 0.5
2020-Jan-17 09:40 317 8 gusting 14 0.4
2020-Jan-17 09:35 315 9 gusting 15 0.5
2020-Jan-17 09:30 322 8 gusting 16 0.5
2020-Jan-17 09:25 317 11 gusting 18 0.6
2020-Jan-17 09:20 312 10 gusting 19 0.7
2020-Jan-17 09:15 319 11 gusting 18 0.7
2020-Jan-17 09:10 314 11 gusting 18 0.8
2020-Jan-17 09:05 320 9 gusting 16 0.7
2020-Jan-17 09:00 315 10 gusting 15 0.8
2020-Jan-17 08:55 317 10 gusting 17 0.7
2020-Jan-17 08:50 312 7 gusting 13 0.6
2020-Jan-17 08:45 309 9 gusting 13 0.8
2020-Jan-17 08:40 305 8 gusting 11 0.7
2020-Jan-17 08:35 312 8 gusting 10 0.8
2020-Jan-17 08:30 321 6 gusting 10 0.8
2020-Jan-17 08:25 319 8 gusting 12 0.9
2020-Jan-17 08:20 317 9 gusting 15 1.0
2020-Jan-17 08:15 321 8 gusting 12 0.9
2020-Jan-17 08:10 317 8 gusting 11 1.1
2020-Jan-17 08:05 322 9 gusting 16 1.0
2020-Jan-17 08:00 319 9 gusting 14 1.1
2020-Jan-17 07:55 322 9 gusting 15 1.2
2020-Jan-17 07:50 322 8 gusting 13 1.0
2020-Jan-17 07:45 324 7 gusting 10 1.0
2020-Jan-17 07:40 324 7 gusting 10 1.2
2020-Jan-17 07:35 325 8 gusting 10 1.3
2020-Jan-17 07:30 322 9 gusting 13 1.3
2020-Jan-17 07:25 323 7 gusting 10 1.3
2020-Jan-17 07:20 322 8 gusting 12 1.4
2020-Jan-17 07:15 314 7 gusting 10 1.5
2020-Jan-17 07:10 319 8 gusting 12 1.5
2020-Jan-17 07:05 314 8 gusting 13 1.5
2020-Jan-17 07:00 318 7 gusting 10 1.5
2020-Jan-17 06:55 318 8 gusting 12 1.7
2020-Jan-17 06:50 315 9 gusting 13 1.7
2020-Jan-17 06:45 318 10 gusting 17 1.9
2020-Jan-17 06:40 319 9 gusting 16 1.9
2020-Jan-17 06:35 318 11 gusting 15 1.9
2020-Jan-17 06:30 317 9 gusting 14 2.0
2020-Jan-17 06:25 314 11 gusting 15 2.1
2020-Jan-17 06:20 324 13 gusting 17 2.2
2020-Jan-17 06:15 318 13 gusting 21 2.2
2020-Jan-17 06:10 326 12 gusting 18 2.2
2020-Jan-17 06:05 324 11 gusting 27 2.3
2020-Jan-17 06:00 318 11 gusting 17 2.4
2020-Jan-17 05:55 319 14 gusting 20 2.4
2020-Jan-17 05:50 316 11 gusting 20 2.3
2020-Jan-17 05:45 313 9 gusting 13 2.3
2020-Jan-17 05:40 317 13 gusting 18 2.4
2020-Jan-17 05:35 316 10 gusting 17 2.2
2020-Jan-17 05:30 323 11 gusting 19 2.4
2020-Jan-17 05:25 315 12 gusting 19 2.4
2020-Jan-17 05:20 319 11 gusting 16 2.3
2020-Jan-17 05:15 311 10 gusting 15 2.2
2020-Jan-17 05:10 314 9 gusting 14 2.4
2020-Jan-17 05:05 316 11 gusting 15 2.5
2020-Jan-17 05:00 316 10 gusting 17 2.4
2020-Jan-17 04:55 314 11 gusting 16 2.5
2020-Jan-17 04:50 316 13 gusting 20 2.5
2020-Jan-17 04:45 313 13 gusting 18 2.6
2020-Jan-17 04:40 313 13 gusting 18 2.6
2020-Jan-17 04:35 312 14 gusting 23 2.7
2020-Jan-17 04:30 311 13 gusting 20 2.7
2020-Jan-17 04:25 313 11 gusting 17 2.6
2020-Jan-17 04:20 317 12 gusting 20 2.7
2020-Jan-17 04:15 317 12 gusting 22 2.7
2020-Jan-17 04:10 310 12 gusting 16 2.8
2020-Jan-17 04:05 314 14 gusting 20 2.8
2020-Jan-17 04:00 311 12 gusting 17 2.9
2020-Jan-17 03:55 308 14 gusting 21 2.8
2020-Jan-17 03:50 306 13 gusting 20 2.9
2020-Jan-17 03:45 302 14 gusting 19 3.0
2020-Jan-17 03:40 303 12 gusting 17 3.0
2020-Jan-17 03:35 305 11 gusting 19 3.0
2020-Jan-17 03:30 309 12 gusting 18 3.1
2020-Jan-17 03:25 312 14 gusting 21 3.2
2020-Jan-17 03:20 306 16 gusting 23 3.3
2020-Jan-17 03:15 314 12 gusting 20 3.2
2020-Jan-17 03:10 314 14 gusting 27 3.3
2020-Jan-17 03:05 313 14 gusting 21 3.4
2020-Jan-17 03:00 313 13 gusting 20 3.4
2020-Jan-17 02:55 310 13 gusting 24 3.3
2020-Jan-17 02:50 309 12 gusting 19 3.4
2020-Jan-17 02:45 309 15 gusting 23 3.5
2020-Jan-17 02:40 309 14 gusting 22 3.5
2020-Jan-17 02:35 308 15 gusting 24 3.5
2020-Jan-17 02:30 312 11 gusting 18 3.5
2020-Jan-17 02:25 313 13 gusting 21 3.7
2020-Jan-17 02:20 310 14 gusting 21 3.8
2020-Jan-17 02:15 319 13 gusting 23 3.8
2020-Jan-17 02:10 318 14 gusting 21 3.9
2020-Jan-17 02:05 318 16 gusting 27 3.9
2020-Jan-17 02:00 312 16 gusting 29 4.0
2020-Jan-17 01:55 315 16 gusting 25 4.0
2020-Jan-17 01:50 318 14 gusting 21 4.1
2020-Jan-17 01:45 314 14 gusting 22 4.1
2020-Jan-17 01:40 315 14 gusting 21 4.3
2020-Jan-17 01:35 313 18 gusting 27 4.4
2020-Jan-17 01:30 313 16 gusting 22 4.5
2020-Jan-17 01:25 311 17 gusting 25 4.4
2020-Jan-17 01:20 314 13 gusting 23 4.5
2020-Jan-17 01:15 318 16 gusting 28 4.6
2020-Jan-17 01:10 316 17 gusting 27 4.8
2020-Jan-17 01:05 310 19 gusting 28 4.9
2020-Jan-17 01:00 312 17 gusting 28 4.9
2020-Jan-17 00:55 309 17 gusting 23 5.0
2020-Jan-17 00:50 308 16 gusting 29 5.0
2020-Jan-17 00:45 311 14 gusting 25 5.1
2020-Jan-17 00:40 311 17 gusting 28 5.3
2020-Jan-17 00:35 316 16 gusting 30 5.4
2020-Jan-17 00:30 319 15 gusting 25 5.4
2020-Jan-17 00:25 319 11 gusting 20 5.5
2020-Jan-17 00:20 317 11 gusting 16 5.7
2020-Jan-17 00:15 321 14 gusting 21 6.0
2020-Jan-17 00:10 318 16 gusting 23 6.1
2020-Jan-17 00:05 315 13 gusting 21 6.3
2020-Jan-17 00:00 318 12 gusting 21 6.6
2020-Jan-16 23:55 329 12 gusting 17 6.8
2020-Jan-16 23:50 324 13 gusting 20 7.0
2020-Jan-16 23:45 321 14 gusting 21 7.1
2020-Jan-16 23:40 319 12 gusting 21 7.1
2020-Jan-16 23:35 312 9 gusting 14 7.0
2020-Jan-16 23:30 308 9 gusting 12 7.1
2020-Jan-16 23:25 307 9 gusting 13 7.0
2020-Jan-16 23:20 309 8 gusting 11 7.0
2020-Jan-16 23:15 308 9 gusting 15 6.9
2020-Jan-16 23:10 306 10 gusting 16 7.0
2020-Jan-16 23:05 306 10 gusting 16 7.0
2020-Jan-16 23:00 308 8 gusting 12 6.8
2020-Jan-16 22:55 305 8 gusting 12 6.6
2020-Jan-16 22:50 301 7 gusting 12 6.5
2020-Jan-16 22:45 305 8 gusting 10 6.7
2020-Jan-16 22:40 303 7 gusting 11 6.8
2020-Jan-16 22:35 304 8 gusting 11 6.8
2020-Jan-16 22:30 305 8 gusting 11 7.0
2020-Jan-16 22:25 307 9 gusting 14 7.0
2020-Jan-16 22:20 299 9 gusting 15 7.1
2020-Jan-16 22:15 305 10 gusting 15 7.3
2020-Jan-16 22:10 310 12 gusting 16 7.4
2020-Jan-16 22:05 305 13 gusting 19 7.7
2020-Jan-16 22:00 312 15 gusting 20 7.7
2020-Jan-16 21:55 311 10 gusting 15 7.8
2020-Jan-16 21:50 310 12 gusting 20 8.0
2020-Jan-16 21:45 306 14 gusting 25 8.2
2020-Jan-16 21:40 310 14 gusting 20 8.3
2020-Jan-16 21:35 305 15 gusting 23 8.4
2020-Jan-16 21:30 301 13 gusting 19 8.4
2020-Jan-16 21:25 308 15 gusting 21 8.6
2020-Jan-16 21:20 318 13 gusting 18 8.6
2020-Jan-16 21:15 319 15 gusting 25 8.8
2020-Jan-16 21:10 313 11 gusting 19 8.9
2020-Jan-16 21:05 324 14 gusting 19 9.0
2020-Jan-16 21:00 320 14 gusting 20 9.1
2020-Jan-16 20:55 317 14 gusting 23 9.2
2020-Jan-16 20:50 314 13 gusting 20 9.4
2020-Jan-16 20:45 312 15 gusting 22 9.5
2020-Jan-16 20:40 319 14 gusting 21 9.6
2020-Jan-16 20:35 317 15 gusting 23 9.8
2020-Jan-16 20:30 318 15 gusting 22 9.9
2020-Jan-16 20:25 322 14 gusting 21 10.2
2020-Jan-16 20:20 312 16 gusting 25 10.3
2020-Jan-16 20:15 308 17 gusting 26 10.5
2020-Jan-16 20:10 307 18 gusting 27 10.6
2020-Jan-16 20:05 316 14 gusting 23 10.9
2020-Jan-16 20:00 307 17 gusting 25 10.9
2020-Jan-16 19:55 306 18 gusting 27 11.0
2020-Jan-16 19:50 298 18 gusting 23 11.2
2020-Jan-16 19:45 292 17 gusting 27 11.3
2020-Jan-16 19:40 299 17 gusting 25 11.2
2020-Jan-16 19:35 295 20 gusting 30 11.3
2020-Jan-16 19:30 297 18 gusting 27 11.6
2020-Jan-16 19:25 305 16 gusting 25 11.7
2020-Jan-16 19:20 306 15 gusting 24 11.7
2020-Jan-16 19:15 303 20 gusting 28 11.6
2020-Jan-16 19:10 306 19 gusting 24 11.7
2020-Jan-16 19:05 306 17 gusting 26 11.8
2020-Jan-16 19:00 296 15 gusting 25 11.9
2020-Jan-16 18:55 296 14 gusting 25 11.8
2020-Jan-16 18:50 293 19 gusting 27 11.7
2020-Jan-16 18:45 291 16 gusting 23 11.8
2020-Jan-16 18:40 293 17 gusting 24 11.9
2020-Jan-16 18:35 302 16 gusting 23 11.8
2020-Jan-16 18:30 297 14 gusting 24 11.9
2020-Jan-16 18:25 298 17 gusting 26 11.9
2020-Jan-16 18:20 310 15 gusting 23 12.0
2020-Jan-16 18:15 295 17 gusting 26 11.9
2020-Jan-16 18:10 295 16 gusting 22 11.9
2020-Jan-16 18:05 296 17 gusting 25 11.8
2020-Jan-16 18:00 294 18 gusting 25 11.8
2020-Jan-16 17:55 297 16 gusting 21 11.8
2020-Jan-16 17:50 293 18 gusting 26 11.8
2020-Jan-16 17:45 291 15 gusting 25 11.9
2020-Jan-16 17:40 297 12 gusting 18 11.4
2020-Jan-16 17:35 286 12 gusting 16 10.7
2020-Jan-16 17:30 294 11 gusting 16 10.7
2020-Jan-16 17:25 290 11 gusting 16 10.8
2020-Jan-16 17:20 296 12 gusting 18 10.9
2020-Jan-16 17:15 302 17 gusting 26 11.0
2020-Jan-16 17:10 301 16 gusting 22 11.2
2020-Jan-16 17:05 306 16 gusting 26 11.3
2020-Jan-16 17:00 305 15 gusting 22 11.1
2020-Jan-16 16:55 312 14 gusting 23 11.0
2020-Jan-16 16:50 311 13 gusting 23 11.1
2020-Jan-16 16:45 307 10 gusting 16 11.2
2020-Jan-16 16:40 307 11 gusting 20 11.2
2020-Jan-16 16:35 312 15 gusting 21 11.2
2020-Jan-16 16:30 302 16 gusting 21 11.3
2020-Jan-16 16:25 302 16 gusting 23 11.4
2020-Jan-16 16:20 301 16 gusting 25 11.5
2020-Jan-16 16:15 302 15 gusting 23 11.5
2020-Jan-16 16:10 300 16 gusting 25 11.6
2020-Jan-16 16:05 307 14 gusting 24 11.8
2020-Jan-16 16:00 306 16 gusting 28 11.8
2020-Jan-16 15:55 303 17 gusting 26 11.9
2020-Jan-16 15:50 302 16 gusting 26 12.1
2020-Jan-16 15:45 298 15 gusting 23 12.1
2020-Jan-16 15:40 305 17 gusting 24 12.2
2020-Jan-16 15:35 308 13 gusting 20 12.2
2020-Jan-16 15:30 304 17 gusting 24 12.3
2020-Jan-16 15:25 295 17 gusting 24 12.4
2020-Jan-16 15:20 295 16 gusting 24 12.5
2020-Jan-16 15:15 305 17 gusting 26 12.5
2020-Jan-16 15:10 302 16 gusting 22 12.6
2020-Jan-16 15:05 296 16 gusting 30 12.6
2020-Jan-16 15:00 297 18 gusting 29 12.6
2020-Jan-16 14:55 299 18 gusting 24 12.6
2020-Jan-16 14:50 302 16 gusting 24 12.4
2020-Jan-16 14:45 301 12 gusting 19 12.3
2020-Jan-16 14:40 293 10 gusting 14 12.3
2020-Jan-16 14:35 296 11 gusting 15 12.3
2020-Jan-16 14:30 291 7 gusting 13 12.3
2020-Jan-16 14:25 295 9 gusting 14 12.2
2020-Jan-16 14:20 298 10 gusting 15 12.2
2020-Jan-16 14:15 302 10 gusting 14 12.2
2020-Jan-16 14:10 299 10 gusting 14 12.2
2020-Jan-16 14:05 298 9 gusting 13 12.1
2020-Jan-16 14:00 291 9 gusting 13 12.0
2020-Jan-16 13:55 290 9 gusting 14 11.8
2020-Jan-16 13:50 291 9 gusting 13 11.5
2020-Jan-16 13:45 296 9 gusting 13 11.5
2020-Jan-16 13:40 293 9 gusting 14 11.3
2020-Jan-16 13:35 290 7 gusting 10 11.1
2020-Jan-16 13:30 284 6 gusting 10 11.0
2020-Jan-16 13:25 282 7 gusting 11 10.9
2020-Jan-16 13:20 280 8 gusting 10 10.8
2020-Jan-16 13:15 283 7 gusting 11 10.9
2020-Jan-16 13:10 291 6 gusting 11 10.8
2020-Jan-16 13:05 292 7 gusting 10 10.9
2020-Jan-16 13:00 288 7 gusting 12 10.8
2020-Jan-16 12:55 294 7 gusting 9 10.8
2020-Jan-16 12:50 291 7 gusting 11 10.6
2020-Jan-16 12:45 283 5 gusting 8 10.5
2020-Jan-16 12:40 279 6 gusting 10 10.5
2020-Jan-16 12:35 282 6 gusting 10 10.4
2020-Jan-16 12:30 282 5 gusting 8 10.3
2020-Jan-16 12:25 284 6 gusting 10 10.2
2020-Jan-16 12:20 279 5 gusting 9 10.1
2020-Jan-16 12:15 273 5 gusting 8 10.2
2020-Jan-16 12:10 272 5 gusting 7 10.1
2020-Jan-16 12:05 267 5 gusting 6 10.2
2020-Jan-16 12:00 270 5 gusting 7 10.3
2020-Jan-16 11:55 267 5 gusting 7 10.3
2020-Jan-16 11:50 274 5 gusting 7 10.4
2020-Jan-16 11:45 287 6 gusting 8 10.3
2020-Jan-16 11:40 278 6 gusting 9 10.3
2020-Jan-16 11:35 272 6 gusting 8 10.4
2020-Jan-16 11:30 273 6 gusting 8 10.5
2020-Jan-16 11:25 281 7 gusting 9 10.5
2020-Jan-16 11:20 280 7 gusting 10 10.5
2020-Jan-16 11:15 267 8 gusting 9 10.7
2020-Jan-16 11:10 243 8 gusting 11 10.8
2020-Jan-16 11:05 247 7 gusting 10 10.9
2020-Jan-16 11:00 254 8 gusting 11 11.0